Regional Weather Roundup
Issued by NWS

Home | Current Version | Previous Version | Text Only | Print | Product List | Glossary On
Versions: 1 2 3 4 5 6 7 8 9 10 11 12 13 14 15 16 17 18 19 20 21 22 23 24 25 26 27 28 29 30 31 32 33 34 35 36 37 38 39 40 41 42 43 44 45 46 47 48 49 50
000
ASUS43 KMKX 170959
RWRWI

WISCONSIN REGIONAL WEATHER ROUNDUP
NATIONAL WEATHER SERVICE MILWAUKEE/SULLIVAN WI
400 AM CST WED JAN 17 2018

NOTE: "FAIR" INDICATES FEW OR NO CLOUDS BELOW 12,000 FEET WITH NO
SIGNIFICANT WEATHER AND/OR OBSTRUCTIONS TO VISIBILITY.

WIZ001-002-006>008-014>016-023>028-171100-
NORTHWEST WISCONSIN

CITY           SKY/WX    TMP DP  RH WIND       PRES   REMARKS
SUPERIOR ARPT  FAIR       5  -3  70 SW12      30.29F WCI -11
ASHLAND        FAIR       6  -2  69 SW14      30.28F WCI -11
HAYWARD        FAIR       1  -4  79 SW8       30.31F WCI -13
SIREN          FAIR       2  -4  75 SW9       30.37F WCI -12
CUMBERLAND     FAIR       0  -4  85 SW13      30.37F WCI -18
RICE LAKE      FAIR      -2  -6  85 CALM      30.41F
CHETEK         FAIR      -4  -8  85 CALM      30.40F
LADYSMITH      CLOUDY     1  -3  83 SW7       30.39F WCI -12
EAU CLAIRE     NOT AVBL
MENOMONIE      FAIR      -4  -9  81 CALM      30.44F
NEW RICHMOND   FAIR      -3  -8  81 S8        30.41F WCI -18
OSCEOLA        FAIR      -2  -7  81 S7        30.44F WCI -16
$$

WIZ003>005-009-010-017-018-171100-
NORTH CENTRAL WISCONSIN

CITY           SKY/WX    TMP DP  RH WIND       PRES   REMARKS
MANITOWISH WTR CLOUDY     2  -3  80 SW8G16    30.24F WCI -12
ARBOR VITAE    MOCLDY     5   0  81 W10       30.25F WCI -10
WOODRUFF       MOCLDY     5   0  81 W10       30.25F WCI -10
RHINELANDER    CLOUDY     3  -2  79 W13       30.26F WCI -14
EAGLE RIVER    MOCLDY     4  -2  77 W10       30.24F WCI -12
LAND O LAKES   MOCLDY     6   1  78 W6        30.24F WCI  -5
PHILLIPS       CLOUDY     0  -4  84 SW8       30.30F WCI -14
TOMAHAWK       CLOUDY     1  -3  82 CALM      30.32F
MEDFORD        FAIR      -4  -8  84 W6        30.35F WCI -17
MERRILL        FAIR      -2  -6  84 CALM      30.35F
$$

WIZ029-030-035-036-043>047-171100-
CENTRAL WISCONSIN

CITY           SKY/WX    TMP DP  RH WIND       PRES   REMARKS
WAUSAU         FAIR      -2  -6  83 W6        30.36F WCI -14
MOSINEE        FAIR      -2  -6  84 W9        30.39F WCI -18
MARSHFIELD     MOCLDY    -3  -7  82 W9        30.38F WCI -19
STEVENS POINT  FAIR      -2  -5  87 W5        30.41F WCI -12
WAUPACA        FAIR       4  -2  77 SW6       30.43F WCI  -7
WAUTOMA        FAIR      -1  -4  87 W9        30.45  WCI -16
WISC RAPIDS    FAIR      -2  -7  79 W7        30.43F WCI -15
CAMP DOUGLAS   FAIR      -3  -7  83 SW3       30.45F
$$

WIZ011>013-019>022-031-037>040-048>050-171100-
NORTHEAST WISCONSIN

CITY           SKY/WX    TMP DP  RH WIND       PRES   REMARKS
ANTIGO         FAIR      -1  -4  87 W12       30.31F WCI -18
SHAWANO        FAIR       6   0  77 SW7       30.38F WCI  -6
OCONTO         FAIR       6   3  88 SW10      30.38F WCI  -9
STURGEON BAY   FAIR       6   2  83 SW15      30.36F WCI -12
GREEN BAY      FAIR       4  -2  76 SW8       30.41F WCI  -9
MANITOWOC      FAIR       6   1  80 W14       30.42F WCI -11
APPLETON       FAIR       3  -4  72 SW12      30.39F WCI -13
CLINTONVILLE   FAIR       3  -4  72 W6        30.40F WCI  -8
OSHKOSH        FAIR       4  -1  80 W8        30.43F WCI  -9
$$

WIZ032>034-041-042-053>061-171100-
SOUTHWEST WISCONSIN

CITY           SKY/WX    TMP DP  RH WIND       PRES   REMARKS
LA CROSSE      FAIR      -3  -7  82 S7        30.52F WCI -16
SPARTA         FAIR      -3  -5  88 SW3       30.50F
VIROQUA        FAIR      -6  -8  89 SW5       30.46F WCI -17
BOSCOBEL       FAIR      -3  -7  82 SW6       30.56F WCI -15
PRAIRIE DU CHI FAIR      -5 -10  80 W3        30.57S
PLATTEVILLE    FAIR      -3  -5  89 W7        30.52F WCI -16
$$

WIZ056-057-062-063-064-067-068-171100-
SOUTH CENTRAL WISCONSIN

CITY           SKY/WX    TMP DP  RH WIND       PRES   REMARKS
REEDSBURG      FAIR       0  -4  85 SW6       30.49S WCI -12
BARABOO/DELLS  FAIR       0  -3  84 CALM      30.47S
LONE ROCK      NOT AVBL
MINERAL POINT  FAIR       0  -4  85 W6        30.48F WCI -12
MADISON        FAIR       3  -1  83 CALM      30.49F
MIDDLETON      FAIR       4   0  86 W7        30.49F WCI  -8
WATERTOWN      FAIR      -1  -3  92 CALM      30.48F
MONROE         FAIR       1  -4  78 W17       30.48F WCI -19
JANESVILLE     FAIR       1  -4  78 CALM      30.51F
$$

WIZ051-052-058>065-066-070>072-171100-
SOUTHEAST WISCONSIN

CITY           SKY/WX    TMP DP  RH WIND       PRES   REMARKS
MILWAUKEE      FAIR      10   6  84 W6        30.47F WCI   0
WAUKESHA       FAIR       5   1  85 SW5       30.47F WCI  -4
MILWAUKEE/TIMM FAIR       7   3  85 W9        30.48F WCI  -7
RACINE         FAIR       7   4  87 W7        30.50F WCI  -5
BURLINGTON     FAIR       0  -4  82 SW5       30.49F WCI -10
KENOSHA        FAIR       3  -1  83 SW8       30.48F WCI -10
FOND DU LAC    FAIR       4  -2  76 SW5       30.44F WCI  -5
SHEBOYGAN      FAIR       3   0  87 W10       30.43F WCI -12
WEST BEND      FAIR       7   3  85 W5        30.44F WCI  -2
JUNEAU         FAIR      -2  -5  87 CALM      30.47S
$$

LSZ147-162-171100-
LAKE SUPERIOR

STATION/POSITION TIME  TEMP    WIND        PRES    WAVE
                       AIR SEA DIR/SP/G            HT/PER
                 (UTC) (F)     (DEG/KT/KT) (MB)    (FT/S)
DEVILS ISLAND    0900   11     220/ 24/ 30 1025.0F
SAXON HARBOR     0940   10     200/ 13/ 18 1024.4F
$$

LMZ867-665-643>646-171100-
LAKE MICHIGAN

STATION/POSITION TIME  TEMP    WIND        PRES    WAVE
                       AIR SEA DIR/SP/G            HT/PER
                 (UTC) (F)     (DEG/KT/KT) (MB)    (FT/S)
NORTHPORT PIER   0936    9     230/ 18     1026.8F
KEWAUNEE LAKESHO 0930    8     270/  9/ 14 1028.7F
SHEBOYGAN LAKESH 0900    9     260/ 13/ 16 1032.4F
PORT WASHINGTON  0930    9     280/  8/ 12 1032.5F
MILWAUKEE LAKESH 0930   11     280/ 13/ 16   N/A
KENOSHA   LAKESH 0900    9     270/ 12/ 15 1032.5
$$

TC  - TEMPERATURE IN CELSIUS
VSB - VISIBILITY IN STATUTE MILES
WCI - WIND CHILL INDEX
HX  - HEAT INDEX





USA.gov is the U.S. government's official web portal to all federal, state and local government web resources and services.